Wind_Speed
45 45 46 46 48 49 51 54 55 56 56 57 59 60 62 63 65 66 66 67 67 68 69 70 72 73 75 78 80 83 85 88 90 92 94 97 98 100
46 46 48 49 50 52 55 57 59 60 61 61 63 64 65 66 67 67 67 68 68 70 72 74 76 79 82 84 87 90 92 94 96 97 97 98 97 96
47 47 49 51 53 56 58 60 62 64 65 65 67 68 68 69 68 69 69 70 72 74 77 80 83 86 89 92 94 95 96 95 93 91 88 85 82 79
48 50 52 54 57 59 61 63 65 66 67 68 68 69 70 70 70 71 72 74 77 80 84 88 91 94 96 96 95 92 89 84 79 75 70 66 63 61
51 54 56 58 60 61 63 65 66 68 69 70 70 70 70 72 73 75 77 80 84 88 92 95 96 96 94 90 85 79 74 68 64 60 57 55 54 53
56 57 58 60 62 64 65 66 68 69 70 71 71 71 72 75 77 79 81 85 90 94 96 95 92 87 82 76 71 65 61 58 56 54 52 51 50 49
57 58 60 62 63 64 66 67 68 69 70 71 72 74 76 79 82 85 87 89 91 91 88 83 78 73 68 65 61 58 57 55 54 52 50 49 48 48
58 60 61 63 64 66 67 68 69 71 72 74 75 78 81 84 87 89 91 89 84 78 75 68 66 62 60 58 57 57 56 55 53 51 50 48 47 47
58 60 62 64 65 66 67 68 70 73 76 78 80 83 86 88 90 89 86 80 72 67 64 58 57 55 55 55 56 57 57 55 53 51 49 47 46 45
60 61 63 64 65 67 68 70 73 76 80 83 85 88 90 90 87 82 75 67 60 57 57 53 51 52 52 53 55 56 55 53 51 49 47 45 43 43
60 62 63 64 66 69 71 74 77 80 83 87 89 90 87 82 76 69 62 56 51 49 53 52 51 51 49 49 51 53 52 49 46 44 42 41 40 40
60 62 64 67 70 74 76 78 81 84 86 87 85 81 74 68 63 58 54 51 49 48 51 52 50 50 45 41 44 47 47 45 42 39 37 36 36 36
61 64 69 72 76 78 81 84 86 86 84 78 71 65 59 55 53 52 51 50 50 50 51 50 47 45 42 35 35 39 41 40 38 35 33 32 31 31
66 70 74 77 80 82 85 86 84 78 70 61 55 51 49 48 48 48 49 49 49 49 48 46 42 37 34 30 29 31 35 35 32 29 27 26 26 26
72 75 78 80 83 84 83 79 70 60 51 46 43 42 43 44 45 46 46 46 45 45 44 40 36 31 28 25 23 24 26 28 27 24 22 22 22 22
75 78 81 82 81 77 69 58 48 41 38 36 36 37 39 41 42 42 41 40 37 37 38 36 32 28 25 22 20 18 20 21 22 21 19 19 20 20
76 78 77 73 65 54 44 36 32 30 29 30 33 35 37 37 38 39 36 34 31 28 28 29 29 26 23 19 16 14 14 16 18 18 18 19 21 22
73 69 61 52 42 33 28 26 24 24 27 29 32 34 34 34 34 33 31 28 26 24 23 22 21 21 21 21 18 13 13 15 17 19 19 19 21 25
59 50 40 32 26 22 20 20 21 24 27 29 31 31 31 31 30 28 27 25 24 23 22 20 18 17 16 17 19 18 15 15 17 20 21 22 22 25
41 32 25 21 18 17 18 19 22 25 27 28 29 29 29 29 27 26 25 24 22 21 21 20 19 18 16 16 17 20 20 18 18 19 22 23 24 26
27 21 18 16 16 17 19 21 24 25 26 27 27 28 28 27 26 25 24 23 22 21 20 19 19 19 18 18 18 19 21 22 22 22 21 21 22 23
19 16 15 16 17 19 20 22 24 26 27 27 27 27 27 27 26 25 25 23 22 21 20 20 20 20 20 19 19 20 21 23 25 25 24 22 21 21
15 15 16 17 18 20 21 23 24 26 27 27 27 27 27 27 27 26 25 23 22 21 20 20 21 22 21 21 21 22 23 24 24 24 25 24 23 22
Wind_Direction
283 285 286 288 290 292 293 294 294 295 294 294 294 294 294 294 294 294 293 292 291 290 289 288 287 286 285 285 284 284 284 283 282 281 280 278 277 275
284 285 288 289 290 292 293 294 294 294 294 295 295 295 295 295 294 293 292 292 291 290 289 288 288 288 287 287 287 287 286 285 284 283 281 279 277 275
284 286 288 290 291 292 292 293 294 294 295 296 296 296 296 296 295 294 293 293 293 292 292 291 291 291 291 291 290 289 288 287 286 284 281 279 276 274
285 286 288 289 289 290 291 292 293 294 295 296 296 296 296 296 295 294 294 294 294 294 294 295 295 295 294 293 292 291 289 287 285 282 279 277 274 271
285 286 287 288 289 289 291 292 294 295 296 296 296 296 296 296 296 296 297 297 297 297 297 297 297 296 295 293 292 290 288 285 282 280 277 274 272 270
284 285 286 287 289 290 292 294 295 296 296 297 297 297 297 297 297 297 298 299 299 299 298 298 297 296 294 292 291 289 286 284 282 279 276 274 271 268
283 285 287 289 291 292 293 295 296 296 296 296 297 297 297 298 298 299 300 300 300 299 298 297 296 294 293 292 290 288 286 285 282 280 277 273 269 266
284 287 289 291 293 294 295 297 297 297 297 297 298 298 299 299 300 301 301 301 300 297 296 295 294 293 292 291 290 288 287 285 283 280 277 272 268 265
287 290 292 294 295 296 297 298 298 298 299 299 300 300 300 300 301 302 302 301 300 296 294 293 291 291 291 291 289 288 287 285 283 280 276 272 267 264
292 294 295 296 297 297 298 298 299 299 300 301 301 302 302 303 303 302 301 300 299 295 293 293 292 292 292 291 289 287 286 284 282 279 275 271 267 263
295 296 297 297 298 298 299 299 300 300 301 301 302 303 303 303 302 301 300 299 297 295 295 296 296 295 294 292 289 287 286 285 282 279 276 271 267 263
297 298 299 299 299 300 300 300 300 301 301 302 303 303 303 302 302 301 301 300 299 297 297 299 299 297 295 290 286 286 286 286 284 280 277 273 268 263
300 301 301 301 300 300 300 300 301 301 302 302 302 302 302 302 302 303 303 303 303 303 302 302 302 300 298 291 282 283 284 285 284 282 280 275 269 264
302 301 301 301 301 301 301 302 302 303 303 303 302 302 303 303 304 305 306 307 307 307 306 306 307 304 300 294 286 281 283 285 286 284 281 276 270 263
303 302 302 301 301 302 302 303 304 304 304 305 305 306 307 307 307 307 308 309 310 309 310 311 313 312 308 302 293 285 281 283 287 286 283 280 273 266
304 303 303 303 303 304 305 305 306 307 308 309 310 312 312 312 312 312 312 312 312 311 312 315 318 319 316 312 305 293 287 285 286 289 289 284 279 273
305 305 305 306 307 308 308 310 311 314 315 317 318 319 319 319 319 320 320 319 318 317 314 316 320 323 323 322 315 306 297 291 292 293 291 288 284 280
308 309 310 310 312 314 317 319 321 323 324 325 325 326 326 326 326 327 328 329 328 326 325 323 322 323 324 326 326 319 308 300 296 295 292 287 282 281
313 315 316 319 322 325 328 330 331 331 331 331 332 332 332 333 333 334 335 335 334 334 333 334 332 329 325 321 321 324 321 310 301 298 295 292 285 280
321 323 327 332 336 340 341 340 339 337 336 337 338 339 339 340 341 341 341 341 340 339 339 340 340 338 334 329 322 321 325 321 312 305 300 295 290 285
330 335 342 348 350 349 346 345 343 342 342 343 343 344 345 346 347 348 348 349 348 347 346 344 343 342 339 336 331 327 324 324 321 317 310 302 296 292
343 350 354 354 352 350 348 347 347 347 347 347 347 348 348 350 351 351 351 350 350 350 349 348 346 344 343 340 338 334 331 328 327 325 322 316 309 301
351 353 352 351 350 349 348 348 348 349 349 350 350 350 351 352 351 350 350 350 350 351 351 350 348 347 347 345 343 341 338 336 333 330 327 323 319 314
Height
5696 5694 5691 5687 5683 5679 5675 5671 5667 5663 5660 5654 5646 5640 5634 5629 5623 5618 5612 5607 5601 5595 5590 5585 5580 5575 5570 5565 5560 5554 5549 5544 5539 5533 5528 5524 5519 5515
5685 5682 5679 5675 5671 5666 5661 5656 5651 5647 5643 5639 5632 5625 5619 5612 5606 5600 5594 5588 5582 5575 5569 5563 5557 5551 5545 5539 5533 5526 5519 5513 5507 5500 5494 5488 5483 5478
5674 5671 5667 5662 5658 5652 5647 5642 5636 5631 5627 5622 5615 5607 5600 5594 5587 5581 5574 5568 5561 5553 5545 5538 5532 5524 5517 5509 5502 5494 5487 5479 5472 5466 5459 5454 5450 5447
5662 5658 5654 5649 5644 5639 5633 5627 5621 5615 5610 5605 5598 5590 5582 5574 5568 5562 5555 5547 5539 5530 5521 5512 5504 5495 5486 5477 5468 5461 5454 5447 5441 5436 5431 5428 5425 5423
5650 5646 5641 5636 5630 5624 5618 5612 5605 5599 5592 5586 5580 5572 5564 5555 5548 5541 5533 5524 5514 5503 5493 5484 5474 5463 5453 5444 5437 5431 5426 5421 5416 5413 5410 5407 5405 5404
5637 5632 5627 5622 5615 5609 5603 5596 5589 5582 5574 5566 5560 5553 5545 5535 5527 5520 5513 5501 5489 5474 5463 5454 5444 5434 5425 5417 5412 5407 5403 5399 5396 5394 5391 5389 5388 5387
5624 5619 5613 5607 5600 5594 5587 5579 5572 5564 5556 5548 5541 5533 5524 5514 5505 5496 5488 5479 5466 5447 5438 5429 5418 5411 5402 5396 5390 5386 5383 5380 5378 5376 5374 5372 5371 5370
5611 5605 5599 5592 5585 5577 5570 5562 5553 5545 5536 5529 5521 5512 5502 5492 5482 5472 5462 5453 5444 5427 5415 5409 5397 5392 5384 5378 5371 5367 5363 5361 5359 5357 5356 5355 5354 5354
5598 5591 5584 5576 5568 5560 5553 5545 5535 5524 5515 5507 5499 5488 5479 5469 5459 5449 5437 5426 5418 5404 5395 5394 5383 5377 5370 5362 5354 5348 5345 5342 5340 5339 5338 5337 5337 5338
5583 5576 5568 5560 5551 5543 5536 5527 5517 5506 5495 5485 5475 5465 5453 5442 5432 5423 5414 5407 5399 5386 5375 5376 5370 5363 5356 5346 5336 5330 5327 5324 5323 5321 5320 5320 5321 5322
5568 5560 5552 5544 5535 5526 5518 5509 5499 5487 5474 5462 5451 5440 5429 5418 5409 5402 5395 5388 5383 5374 5360 5357 5353 5347 5342 5332 5320 5313 5309 5308 5306 5305 5305 5305 5305 5307
5553 5544 5535 5526 5517 5507 5497 5488 5479 5468 5455 5442 5429 5416 5407 5398 5389 5383 5377 5371 5365 5360 5349 5342 5336 5327 5327 5321 5309 5299 5295 5293 5292 5292 5291 5291 5292 5293
5538 5528 5518 5508 5498 5487 5476 5466 5456 5445 5434 5422 5411 5400 5391 5383 5375 5367 5361 5355 5349 5342 5333 5327 5321 5313 5307 5306 5300 5290 5284 5282 5280 5280 5279 5279 5280 5281
5522 5511 5500 5489 5477 5466 5454 5443 5432 5422 5413 5404 5395 5387 5379 5371 5363 5355 5348 5340 5333 5326 5319 5312 5307 5301 5295 5291 5288 5283 5277 5273 5271 5271 5270 5270 5270 5271
5503 5491 5479 5468 5456 5444 5432 5421 5412 5403 5396 5389 5382 5375 5368 5360 5352 5345 5337 5329 5322 5312 5305 5300 5295 5290 5285 5280 5277 5274 5270 5267 5264 5264 5263 5263 5262 5263
5482 5470 5457 5445 5433 5422 5412 5403 5396 5391 5385 5379 5373 5366 5359 5350 5342 5334 5327 5320 5314 5306 5297 5290 5286 5282 5277 5273 5269 5267 5264 5262 5260 5258 5257 5256 5255 5255
5463 5449 5436 5424 5413 5404 5398 5392 5387 5383 5378 5372 5366 5359 5351 5342 5334 5325 5318 5311 5305 5300 5294 5287 5281 5276 5272 5268 5265 5262 5260 5258 5256 5254 5252 5251 5249 5248
5442 5429 5418 5408 5400 5395 5390 5386 5382 5377 5372 5366 5360 5352 5345 5336 5328 5320 5312 5306 5300 5294 5289 5285 5280 5275 5271 5265 5262 5259 5257 5254 5252 5249 5247 5245 5244 5241
5425 5414 5406 5399 5394 5390 5386 5383 5378 5374 5368 5362 5355 5347 5340 5332 5324 5317 5310 5303 5297 5292 5286 5282 5277 5273 5270 5265 5261 5256 5253 5251 5247 5244 5241 5238 5237 5234
5414 5406 5400 5395 5391 5388 5384 5381 5376 5371 5365 5358 5351 5344 5336 5329 5321 5314 5308 5301 5296 5290 5285 5280 5275 5271 5267 5263 5259 5254 5249 5245 5242 5239 5235 5231 5227 5224
5408 5402 5398 5394 5391 5387 5383 5379 5374 5368 5362 5355 5348 5341 5334 5327 5320 5313 5306 5300 5294 5289 5284 5279 5274 5269 5264 5260 5256 5252 5246 5240 5235 5231 5227 5223 5219 5215
5407 5402 5399 5395 5391 5387 5382 5377 5372 5366 5360 5353 5346 5339 5333 5326 5319 5312 5306 5300 5294 5289 5283 5278 5273 5268 5263 5258 5253 5248 5243 5237 5231 5224 5218 5214 5209 5205
5407 5403 5399 5395 5391 5386 5381 5376 5371 5365 5358 5352 5345 5338 5332 5325 5318 5312 5306 5300 5294 5288 5283 5278 5272 5266 5261 5255 5250 5244 5239 5233 5227 5220 5214 5207 5202 5196